Torna al catalogo

SL-8 DEB *

AttivoLEO
NORAD 6252·DEBRIS·🇷🇺 Russia

Lanciato Mar 15, 1965 da Baikonur Cosmodrome

Loading…

Prossimi Passaggi (prossime 24 ore)

TLE

AggiornatoSource: Space-Track

Epoca: Sep 12, 2026, 19:29 UTC

1 06252U 65020FD  26255.81209340 -.00000121  00000-0 -23980-3 0  9996
2 06252  56.0370 187.6040 0197588  29.7567 358.9291 12.30085490675869

Traccia SL-8 DEB * in tempo reale con AllMySat

Download on the App Store